Meteor-M No. 2

operational
NORAD ID: 40069 Int'l Des: 2014-037 Owner: RGMS/VNIIEMI Country: RU
LEOCIRCULARRETROGRADESSO

About Meteor-M No. 2

Description loading...

Live Position

Loading 3D Globe...

Upcoming Passes

Altitude History

Altitude vs Time

uPlot chart will show altitude changes over time

Two-Line Element Set

1 40069U 14037A 26061.22184608 .00000238 00000-0 12804-3 0 9991
2 40069 98.5006 40.8085 0005830 359.8541 0.2634 14.21424919604120
Epoch: Mar 2, 2026 • Age: 29 hours

Current Status

Altitude 829.8 km
Velocity 7.44 km/s
Sub-Earth Point -34.14°S, 174.33°E
Launch Date Jul 8, 2014
Age 11.6 years
Type other

Technical Details

Classification Payload
Mass 2879.00 kg
Dry Mass 2600.00 kg
Total Mass 2879.00 kg
Length 6.50 m
Diameter 2.90 m
Span 14.00 m
Shape Cyl+panels
Manufacturer VNIIEMI
Bus Type Resurs-O
Phase Status In Orbit
Owner/State RGMS/VNIIEMI/RU

Large Constellations

Loading constellations...